Volver al catálogo

HULIANWANG DIGUI-52

ActivoComunicacionesLEO
NORAD 65109·PAYLOAD·🇨🇳 China

Lanzado Aug 4, 2025 desde Wenchang Space Launch Site

Loading…

Próximos Pases (próximas 24 horas)

TLE

ActualizadoSource: Space-Track

Época: Sep 14, 2026, 14:23 UTC

1 65109U 25168D   26257.59991421 -.00000082  00000-0  89614-4 0  9998
2 65109  50.0053   5.0520 0009659   8.8237 351.2804 13.29326832 54589

Sigue HULIANWANG DIGUI-52 en tiempo real con AllMySat

Download on the App Store